AFR51JG LIMC-LFPG

Flight info

Callsign AFR51JG
Flight time 1h 4m
Altitude 32000
Route AOSTA DCT ORSUD DCT MOLUS DCT UNKIR DCT TINIL
Aircraft A320/M-SDE2E3FGIJ1RWY/HB1

Departure

Time 2026-05-07 09:14
Airport Milan Malpensa International Airport (LIMC)

Arrival

Time 2026-05-07 10:18
Airport Charles de Gaulle International Airport (LFPG)
Time Latitude Longitude Altitude Speed Heading
2026-05-07 08:52 45.62381 8.71655 741 ft 0 kts 349°
2026-05-07 09:04 45.62367 8.71659 741 ft 4 kts 346°
2026-05-07 09:05 45.62342 8.71670 741 ft 4 kts 342°
2026-05-07 09:05 45.62320 8.71679 741 ft 4 kts
2026-05-07 09:05 45.62305 8.71666 741 ft 4 kts 72°
2026-05-07 09:05 45.62301 8.71649 740 ft 4 kts 78°
2026-05-07 09:06 45.62301 8.71647 741 ft 0 kts 79°
2026-05-07 09:07 45.62303 8.71666 741 ft 4 kts 79°
2026-05-07 09:08 45.62315 8.71746 741 ft 12 kts 78°
2026-05-07 09:08 45.62334 8.71896 741 ft 17 kts 81°
2026-05-07 09:08 45.62356 8.72065 741 ft 16 kts 81°
2026-05-07 09:08 45.62340 8.72223 741 ft 18 kts 146°
2026-05-07 09:09 45.62193 8.72265 741 ft 25 kts 168°
2026-05-07 09:09 45.62008 8.72318 742 ft 28 kts 169°
2026-05-07 09:09 45.61816 8.72371 742 ft 28 kts 169°
2026-05-07 09:09 45.61621 8.72428 742 ft 29 kts 169°
2026-05-07 09:10 45.61424 8.72479 741 ft 29 kts 170°
2026-05-07 09:10 45.61247 8.72533 740 ft 24 kts 168°
2026-05-07 09:10 45.61116 8.72570 741 ft 12 kts 163°
2026-05-07 09:10 45.61076 8.72658 741 ft 13 kts 85°
2026-05-07 09:11 45.61098 8.72806 741 ft 16 kts 78°
2026-05-07 09:11 45.61122 8.72971 742 ft 18 kts 77°
2026-05-07 09:11 45.61197 8.73112 742 ft 19 kts 29°
2026-05-07 09:11 45.61316 8.73222 742 ft 21 kts 33°
2026-05-07 09:12 45.61443 8.73259 742 ft 19 kts 348°
2026-05-07 09:12 45.61573 8.73220 741 ft 15 kts 353°
2026-05-07 09:12 45.61622 8.73324 741 ft 15 kts 81°
2026-05-07 09:12 45.61615 8.73468 741 ft 15 kts 120°
2026-05-07 09:13 45.61584 8.73606 741 ft 15 kts 89°
2026-05-07 09:13 45.61631 8.73729 739 ft 16 kts 12°
2026-05-07 09:13 45.61695 8.73715 739 ft 0 kts 346°
2026-05-07 09:14 45.61846 8.73671 739 ft 59 kts 349°
2026-05-07 09:14 45.62481 8.73498 742 ft 125 kts 349°
2026-05-07 09:14 45.63506 8.73219 848 ft 163 kts 349°
2026-05-07 09:14 45.64610 8.72931 1601 ft 162 kts 349°
2026-05-07 09:15 45.65717 8.72643 2349 ft 162 kts 352°
2026-05-07 09:15 45.66861 8.72610 2990 ft 166 kts
2026-05-07 09:15 45.68002 8.72643 3655 ft 166 kts 360°
2026-05-07 09:15 45.69166 8.72641 4239 ft 174 kts 359°
2026-05-07 09:16 45.70453 8.72628 4590 ft 195 kts 359°
2026-05-07 09:16 45.71870 8.72382 4928 ft 217 kts 334°
2026-05-07 09:16 45.72941 8.70863 5563 ft 224 kts 291°
2026-05-07 09:16 45.73123 8.68625 6178 ft 236 kts 263°
2026-05-07 09:17 45.72815 8.66290 6985 ft 241 kts 255°
2026-05-07 09:17 45.72374 8.63960 7878 ft 244 kts 254°
2026-05-07 09:17 45.71914 8.61609 8768 ft 247 kts 253°
2026-05-07 09:17 45.71202 8.59346 9521 ft 258 kts 237°
2026-05-07 09:18 45.70153 8.57131 9973 ft 279 kts 236°
2026-05-07 09:18 45.69051 8.54717 10437 ft 301 kts 237°
2026-05-07 09:18 45.67889 8.52094 10860 ft 321 kts 238°
2026-05-07 09:18 45.66684 8.49356 11645 ft 328 kts 238°
2026-05-07 09:19 45.65461 8.46587 12506 ft 331 kts 237°
2026-05-07 09:19 45.64221 8.43792 13340 ft 334 kts 238°
2026-05-07 09:19 45.62959 8.40983 14135 ft 338 kts 235°
2026-05-07 09:19 45.61542 8.38333 14902 ft 342 kts 232°
2026-05-07 09:20 45.60023 8.35692 15647 ft 346 kts 231°
2026-05-07 09:20 45.58635 8.32893 16367 ft 349 kts 246°
2026-05-07 09:20 45.58130 8.29523 17044 ft 351 kts 272°
2026-05-07 09:20 45.58602 8.26090 17731 ft 355 kts 285°
2026-05-07 09:21 45.59341 8.22716 18431 ft 358 kts 288°
2026-05-07 09:21 45.60167 8.19345 19104 ft 361 kts 289°
2026-05-07 09:21 45.61021 8.15966 19774 ft 364 kts 289°
2026-05-07 09:21 45.61874 8.12546 20415 ft 367 kts 289°
2026-05-07 09:22 45.62709 8.09093 21055 ft 369 kts 288°
2026-05-07 09:22 45.63533 8.05601 21652 ft 373 kts 288°
2026-05-07 09:22 45.64354 8.02061 22264 ft 376 kts 288°
2026-05-07 09:22 45.65171 7.98494 22861 ft 379 kts 288°
2026-05-07 09:23 45.65991 7.94901 23450 ft 382 kts 288°
2026-05-07 09:23 45.66819 7.91277 24012 ft 385 kts 288°
2026-05-07 09:23 45.67655 7.87624 24571 ft 388 kts 288°
2026-05-07 09:23 45.68497 7.83948 25122 ft 390 kts 287°
2026-05-07 09:24 45.69345 7.80239 25617 ft 392 kts 287°
2026-05-07 09:24 45.70194 7.76516 26112 ft 395 kts 287°
2026-05-07 09:24 45.71047 7.72764 26605 ft 398 kts 287°
2026-05-07 09:24 45.71904 7.68990 27062 ft 400 kts 287°
2026-05-07 09:25 45.72759 7.65197 27527 ft 402 kts 286°
2026-05-07 09:25 45.73606 7.61430 27951 ft 404 kts 286°
2026-05-07 09:25 45.74468 7.57593 28373 ft 406 kts 286°
2026-05-07 09:25 45.75338 7.53739 28792 ft 408 kts 286°
2026-05-07 09:26 45.76214 7.49861 29199 ft 410 kts 286°
2026-05-07 09:26 45.77092 7.45968 29608 ft 412 kts 286°
2026-05-07 09:26 45.77974 7.42043 29991 ft 414 kts 285°
2026-05-07 09:26 45.78872 7.38117 30347 ft 416 kts 289°
2026-05-07 09:27 45.80298 7.34486 30683 ft 424 kts 307°
2026-05-07 09:27 45.82499 7.31626 30990 ft 433 kts 320°
2026-05-07 09:27 45.87443 7.26574 31548 ft 438 kts 321°
2026-05-07 09:28 45.89938 7.24068 31883 ft 439 kts 321°
2026-05-07 09:28 45.92434 7.21558 31984 ft 436 kts 321°
2026-05-07 09:28 45.94877 7.19103 32008 ft 419 kts 321°
2026-05-07 09:29 45.99546 7.14369 32018 ft 406 kts 320°
2026-05-07 09:29 46.04096 7.09677 32022 ft 405 kts 321°
2026-05-07 09:30 46.08683 7.04949 32026 ft 405 kts 321°
2026-05-07 09:30 46.13269 7.00227 32026 ft 405 kts 321°
2026-05-07 09:31 46.17852 6.95507 32025 ft 405 kts 321°
2026-05-07 09:31 46.22431 6.90776 32026 ft 404 kts 321°
2026-05-07 09:32 46.27004 6.86046 32028 ft 404 kts 322°
2026-05-07 09:32 46.31575 6.81310 32032 ft 404 kts 322°
2026-05-07 09:33 46.36131 6.76564 32030 ft 403 kts 322°
2026-05-07 09:33 46.40681 6.71807 32031 ft 403 kts 322°
2026-05-07 09:34 46.44810 6.66417 32034 ft 398 kts 306°
2026-05-07 09:34 46.47689 6.59618 32035 ft 396 kts 298°
2026-05-07 09:35 46.50425 6.52692 32039 ft 396 kts 298°
2026-05-07 09:35 46.53155 6.45810 32041 ft 395 kts 298°
2026-05-07 09:36 46.55883 6.38879 32043 ft 395 kts 298°
2026-05-07 09:36 46.58599 6.31939 32041 ft 395 kts 298°
2026-05-07 09:37 46.61312 6.24995 32039 ft 395 kts 298°
2026-05-07 09:37 46.64020 6.18045 32036 ft 394 kts 298°
2026-05-07 09:38 46.66735 6.11099 32035 ft 394 kts 298°
2026-05-07 09:38 46.69436 6.04151 32032 ft 394 kts 298°
2026-05-07 09:39 46.72125 5.97184 32028 ft 394 kts 298°
2026-05-07 09:39 46.74801 5.90263 32031 ft 394 kts 298°
2026-05-07 09:40 46.77482 5.83310 32033 ft 394 kts 298°
2026-05-07 09:40 46.80239 5.76371 32036 ft 395 kts 304°
2026-05-07 09:41 46.84146 5.70748 32034 ft 398 kts 324°
2026-05-07 09:41 46.88981 5.66767 32035 ft 399 kts 329°
2026-05-07 09:42 46.93854 5.62858 32033 ft 399 kts 329°
2026-05-07 09:42 46.98699 5.58957 32032 ft 400 kts 329°
2026-05-07 09:43 47.03576 5.55025 32030 ft 400 kts 329°
2026-05-07 09:43 47.06019 5.53054 31887 ft 400 kts 329°
2026-05-07 09:43 47.08449 5.51091 31632 ft 398 kts 329°
2026-05-07 09:43 47.10869 5.49134 31384 ft 396 kts 329°
2026-05-07 09:44 47.13274 5.47186 31133 ft 394 kts 329°
2026-05-07 09:44 47.15669 5.45251 30880 ft 392 kts 330°
2026-05-07 09:44 47.18050 5.43320 30633 ft 390 kts 330°
2026-05-07 09:44 47.20421 5.41394 30393 ft 388 kts 330°
2026-05-07 09:45 47.22776 5.39478 30134 ft 386 kts 330°
2026-05-07 09:45 47.25118 5.37570 29879 ft 384 kts 330°
2026-05-07 09:45 47.27451 5.35668 29633 ft 383 kts 330°
2026-05-07 09:45 47.29775 5.33775 29384 ft 381 kts 330°
2026-05-07 09:46 47.32097 5.31881 29133 ft 380 kts 330°
2026-05-07 09:46 47.34404 5.29997 28882 ft 379 kts 330°
2026-05-07 09:46 47.36703 5.28115 28635 ft 377 kts 330°
2026-05-07 09:46 47.38999 5.26230 28383 ft 376 kts 330°
2026-05-07 09:47 47.41255 5.24376 28131 ft 375 kts 330°
2026-05-07 09:47 47.43536 5.22505 27884 ft 374 kts 330°
2026-05-07 09:47 47.45806 5.20644 27632 ft 373 kts 330°
2026-05-07 09:47 47.48078 5.18780 27383 ft 372 kts 330°
2026-05-07 09:48 47.50343 5.16925 27131 ft 371 kts 330°
2026-05-07 09:48 47.52586 5.15081 26881 ft 370 kts 329°
2026-05-07 09:48 47.54835 5.13218 26632 ft 369 kts 329°
2026-05-07 09:48 47.57074 5.11361 26379 ft 368 kts 329°
2026-05-07 09:49 47.59237 5.09370 26129 ft 366 kts 322°
2026-05-07 09:49 47.60555 5.07807 25963 ft 364 kts 319°
2026-05-07 09:49 47.62488 5.05381 25712 ft 364 kts 319°
2026-05-07 09:49 47.64417 5.02960 25462 ft 362 kts 319°
2026-05-07 09:50 47.66337 5.00550 25212 ft 361 kts 318°
2026-05-07 09:50 47.68293 4.98086 24965 ft 381 kts 318°
2026-05-07 09:50 47.70379 4.95451 24715 ft 405 kts 318°
2026-05-07 09:50 47.72557 4.92702 24462 ft 414 kts 318°
2026-05-07 09:51 47.74758 4.89927 24212 ft 416 kts 318°
2026-05-07 09:51 47.76962 4.87147 23961 ft 415 kts 318°
2026-05-07 09:51 47.79165 4.84363 23718 ft 414 kts 318°
2026-05-07 09:51 47.81356 4.81588 23464 ft 413 kts 318°
2026-05-07 09:52 47.83540 4.78821 23209 ft 412 kts 318°
2026-05-07 09:52 47.85715 4.76060 22959 ft 410 kts 318°
2026-05-07 09:52 47.87879 4.73305 22710 ft 409 kts 318°
2026-05-07 09:52 47.90035 4.70552 22460 ft 408 kts 318°
2026-05-07 09:53 47.92183 4.67803 22202 ft 406 kts 318°
2026-05-07 09:53 47.94327 4.65057 21955 ft 405 kts 318°
2026-05-07 09:53 47.96459 4.62324 21700 ft 404 kts 318°
2026-05-07 09:53 47.98590 4.59597 21454 ft 402 kts 318°
2026-05-07 09:54 48.00711 4.56877 21205 ft 401 kts 318°
2026-05-07 09:54 48.02799 4.54191 20958 ft 400 kts 318°
2026-05-07 09:54 48.04903 4.51485 20707 ft 399 kts 318°
2026-05-07 09:54 48.07003 4.48781 20458 ft 397 kts 318°
2026-05-07 09:55 48.09091 4.46088 20206 ft 396 kts 318°
2026-05-07 09:55 48.11179 4.43398 19956 ft 395 kts 318°
2026-05-07 09:55 48.13256 4.40721 19704 ft 394 kts 318°
2026-05-07 09:55 48.15328 4.38048 19454 ft 392 kts 318°
2026-05-07 09:56 48.17390 4.35382 19203 ft 391 kts 318°
2026-05-07 09:56 48.19442 4.32725 18949 ft 390 kts 318°
2026-05-07 09:56 48.21480 4.30082 18696 ft 382 kts 318°
2026-05-07 09:56 48.23449 4.27524 18461 ft 372 kts 318°
2026-05-07 09:57 48.25377 4.25021 18327 ft 359 kts 317°
2026-05-07 09:57 48.27068 4.22382 18209 ft 345 kts 308°
2026-05-07 09:57 48.28571 4.19642 18078 ft 333 kts 308°
2026-05-07 09:57 48.30025 4.16999 17932 ft 324 kts 308°
2026-05-07 09:58 48.31447 4.14414 17637 ft 319 kts 308°
2026-05-07 09:58 48.32851 4.11852 17297 ft 317 kts 308°
2026-05-07 09:58 48.34245 4.09301 16950 ft 315 kts 308°
2026-05-07 09:58 48.35633 4.06763 16596 ft 313 kts 308°
2026-05-07 09:59 48.37011 4.04241 16260 ft 311 kts 308°
2026-05-07 09:59 48.38380 4.01732 15911 ft 310 kts 308°
2026-05-07 09:59 48.39743 3.99235 15586 ft 308 kts 308°
2026-05-07 09:59 48.41101 3.96748 15251 ft 306 kts 308°
2026-05-07 10:00 48.42434 3.94309 14914 ft 305 kts 308°
2026-05-07 10:00 48.43792 3.91818 14578 ft 303 kts 308°
2026-05-07 10:00 48.45112 3.89392 14242 ft 302 kts 308°
2026-05-07 10:00 48.46436 3.86957 13902 ft 300 kts 308°
2026-05-07 10:01 48.47759 3.84520 13561 ft 299 kts 308°
2026-05-07 10:01 48.49073 3.82097 13222 ft 297 kts 308°
2026-05-07 10:01 48.50378 3.79688 12882 ft 296 kts 308°
2026-05-07 10:01 48.51673 3.77292 12540 ft 294 kts 308°
2026-05-07 10:02 48.52962 3.74902 12207 ft 292 kts 308°
2026-05-07 10:02 48.54201 3.72478 11998 ft 291 kts 302°
2026-05-07 10:02 48.55304 3.69917 11876 ft 292 kts 302°
2026-05-07 10:02 48.56408 3.67351 11721 ft 291 kts 302°
2026-05-07 10:03 48.57509 3.64785 11579 ft 291 kts 302°
2026-05-07 10:03 48.58610 3.62218 11428 ft 291 kts 302°
2026-05-07 10:03 48.59694 3.59691 11276 ft 282 kts 302°
2026-05-07 10:03 48.60816 3.57341 11127 ft 279 kts 311°
2026-05-07 10:04 48.62290 3.55378 10912 ft 280 kts 325°
2026-05-07 10:04 48.63948 3.53922 10663 ft 279 kts 331°
2026-05-07 10:04 48.65669 3.52586 10442 ft 279 kts 332°
2026-05-07 10:04 48.67403 3.51264 10212 ft 278 kts 333°
2026-05-07 10:05 48.69133 3.49939 9989 ft 278 kts 332°
2026-05-07 10:05 48.70855 3.48612 9763 ft 277 kts 332°
2026-05-07 10:05 48.72569 3.47285 9540 ft 276 kts 332°
2026-05-07 10:05 48.74277 3.45959 9310 ft 276 kts 332°
2026-05-07 10:06 48.75986 3.44629 9078 ft 275 kts 332°
2026-05-07 10:06 48.77529 3.42952 8857 ft 274 kts 315°
2026-05-07 10:06 48.78851 3.40885 8630 ft 273 kts 313°
2026-05-07 10:06 48.80142 3.38780 8406 ft 272 kts 312°
2026-05-07 10:07 48.81427 3.36674 8176 ft 271 kts 312°
2026-05-07 10:07 48.82700 3.34580 7952 ft 270 kts 312°
2026-05-07 10:07 48.83971 3.32484 7728 ft 269 kts 312°
2026-05-07 10:07 48.85238 3.30394 7497 ft 268 kts 312°
2026-05-07 10:08 48.86497 3.28317 7277 ft 267 kts 312°
2026-05-07 10:08 48.87751 3.26250 7049 ft 265 kts 312°
2026-05-07 10:08 48.88999 3.24191 6825 ft 265 kts 312°
2026-05-07 10:08 48.90243 3.22135 6603 ft 264 kts 312°
2026-05-07 10:09 48.91478 3.20081 6366 ft 262 kts 312°
2026-05-07 10:09 48.92704 3.18041 6150 ft 259 kts 312°
2026-05-07 10:09 48.93897 3.16057 5940 ft 249 kts 312°
2026-05-07 10:09 48.95045 3.14145 5740 ft 240 kts 312°
2026-05-07 10:10 48.96146 3.12309 5575 ft 232 kts 312°
2026-05-07 10:10 48.97209 3.10533 5386 ft 226 kts 312°
2026-05-07 10:10 48.98271 3.08763 5220 ft 221 kts 312°
2026-05-07 10:10 48.99198 3.06950 5058 ft 219 kts 298°
2026-05-07 10:11 48.99841 3.04864 4930 ft 211 kts 293°
2026-05-07 10:11 49.00384 3.02867 4816 ft 203 kts 292°
2026-05-07 10:11 49.00902 3.00948 4774 ft 192 kts 292°
2026-05-07 10:11 49.01371 2.99033 4707 ft 192 kts 282°
2026-05-07 10:12 49.01378 2.97071 4605 ft 180 kts 265°
2026-05-07 10:12 49.01286 2.95221 4470 ft 172 kts 265°
2026-05-07 10:12 49.01194 2.93409 4344 ft 170 kts 265°
2026-05-07 10:12 49.01104 2.91615 4256 ft 167 kts 266°
2026-05-07 10:13 49.01019 2.89923 4099 ft 151 kts 266°
2026-05-07 10:13 49.00940 2.88372 3906 ft 144 kts 265°
2026-05-07 10:13 49.00864 2.86860 3733 ft 143 kts 266°
2026-05-07 10:13 49.00788 2.85356 3543 ft 142 kts 266°
2026-05-07 10:14 49.00711 2.83851 3356 ft 142 kts 266°
2026-05-07 10:14 49.00635 2.82354 3168 ft 142 kts 266°
2026-05-07 10:14 49.00559 2.80865 2977 ft 141 kts 266°
2026-05-07 10:14 49.00484 2.79402 2795 ft 140 kts 266°
2026-05-07 10:15 49.00409 2.77920 2607 ft 140 kts 266°
2026-05-07 10:15 49.00332 2.76442 2422 ft 140 kts 266°
2026-05-07 10:15 49.00257 2.74970 2236 ft 139 kts 266°
2026-05-07 10:15 49.00181 2.73506 2052 ft 138 kts 266°
2026-05-07 10:16 49.00106 2.72049 1868 ft 138 kts 266°
2026-05-07 10:16 49.00029 2.70595 1684 ft 138 kts 266°
2026-05-07 10:16 48.99952 2.69146 1493 ft 137 kts 266°
2026-05-07 10:16 48.99879 2.67695 1304 ft 138 kts 266°
2026-05-07 10:17 48.99800 2.66245 1127 ft 137 kts 266°
2026-05-07 10:17 48.99725 2.64812 960 ft 136 kts 266°
2026-05-07 10:17 48.99648 2.63372 793 ft 136 kts 266°
2026-05-07 10:17 48.99576 2.61943 623 ft 135 kts 266°
2026-05-07 10:18 48.99501 2.60518 434 ft 135 kts 266°
2026-05-07 10:18 48.99428 2.59147 358 ft 118 kts 266°
2026-05-07 10:18 48.99378 2.58143 353 ft 71 kts 265°
2026-05-07 10:18 48.99354 2.57470 351 ft 48 kts 274°
2026-05-07 10:19 48.99426 2.57050 361 ft 37 kts 287°
2026-05-07 10:19 48.99471 2.56769 363 ft 24 kts 279°
2026-05-07 10:19 48.99553 2.56621 354 ft 19 kts
2026-05-07 10:19 48.99691 2.56614 357 ft 22 kts 355°
2026-05-07 10:20 48.99811 2.56562 360 ft 18 kts 311°
2026-05-07 10:20 48.99817 2.56367 354 ft 20 kts 263°
2026-05-07 10:20 48.99804 2.56143 358 ft 22 kts 266°
2026-05-07 10:20 48.99804 2.55895 354 ft 24 kts 282°
2026-05-07 10:21 48.99861 2.55644 354 ft 25 kts 303°
2026-05-07 10:21 49.00015 2.55515 359 ft 27 kts 344°
2026-05-07 10:21 49.00201 2.55436 357 ft 28 kts 344°
2026-05-07 10:21 49.00395 2.55351 358 ft 30 kts 344°
2026-05-07 10:22 49.00562 2.55280 359 ft 25 kts 344°
2026-05-07 10:22 49.00697 2.55290 361 ft 20 kts 48°
2026-05-07 10:22 49.00731 2.55504 360 ft 22 kts 84°
2026-05-07 10:22 49.00751 2.55749 358 ft 25 kts 83°
2026-05-07 10:23 49.00776 2.56020 358 ft 27 kts 82°
2026-05-07 10:23 49.00803 2.56307 356 ft 28 kts 82°
2026-05-07 10:23 49.00827 2.56615 358 ft 30 kts 84°
2026-05-07 10:23 49.00845 2.56913 357 ft 28 kts 86°
2026-05-07 10:24 49.00852 2.57145 357 ft 19 kts 99°
2026-05-07 10:24 49.00775 2.57292 356 ft 19 kts 97°
2026-05-07 10:24 49.00785 2.57506 357 ft 21 kts 85°
2026-05-07 10:24 49.00750 2.57642 356 ft 11 kts 177°
2026-05-07 10:25 49.00709 2.57586 361 ft 5 kts 224°
2026-05-07 10:25 49.00694 2.57562 357 ft 1 kts 225°
2026-05-07 10:25 49.00692 2.57559 354 ft 0 kts 225°